Location: Newark
(58.9986°N, 38.5006°E)
Time: 13:52:35
(UTC+00:00)

ISS - Pass Details

Date: 09 March 2021
Orbit: 418 x 422 km, 51.6° (Epoch: 13 April)

Event Time Altitude Azimuth Distance (km) Brightness Sun altitude
Exits shadow 02:25:55 12° 208° (SSW) 1,360 -1.5 -12.8°
Drops below altitude 10° 02:27:23 10° 182° (S) 1,497 -1.1 -12.7°
Sets 02:30:26 0° 151° (SSE) 2,358 0.3 -12.3°
